| time (UTC) | temp F | wind direction | speed MPH | gust MPH | rain 1hr in | rain 24hr in | rain mn in | humidity % | barometer mb |
| 20260506011904 | 53 | 115 | 1.0 | 5.0 | 0.00 | 0.02 | 0.00 | 80 | 938.0 |
| 20260506011403 | 53 | 111 | 1.0 | 5.0 | 0.00 | 0.02 | 0.00 | 79 | 938.0 |
| 20260506010903 | 53 | 188 | 1.0 | 2.0 | 0.00 | 0.02 | 0.00 | 79 | 938.0 |
| 20260506010403 | 53 | 201 | 1.0 | 3.0 | 0.00 | 0.02 | 0.00 | 79 | 938.0 |
| 20260506005903 | 53 | 201 | 3.0 | 6.0 | 0.00 | 0.02 | 0.00 | 78 | 938.0 |
| 20260506005403 | 53 | 201 | 3.0 | 6.0 | 0.00 | 0.02 | 0.00 | 78 | 938.1 |
| 20260506004904 | 53 | 207 | 2.0 | 6.0 | 0.00 | 0.02 | 0.00 | 79 | 938.1 |
| 20260506004404 | 53 | 208 | 2.0 | 3.0 | 0.00 | 0.02 | 0.00 | 79 | 938.1 |
| 20260506003904 | 53 | 210 | 2.0 | 3.0 | 0.00 | 0.02 | 0.00 | 79 | 938.2 |
| 20260506003404 | 53 | 211 | 2.0 | 3.0 | 0.00 | 0.02 | 0.00 | 79 | 938.2 |
| 20260506002904 | 53 | 207 | 3.0 | 5.0 | 0.00 | 0.02 | 0.00 | 78 | 938.2 |
| 20260506002403 | 53 | 206 | 3.0 | 5.0 | 0.00 | 0.02 | 0.00 | 78 | 938.5 |
| 20260506001903 | 53 | 208 | 3.0 | 5.0 | 0.00 | 0.02 | 0.00 | 78 | 938.5 |
| 20260506001404 | 53 | 191 | 3.0 | 5.0 | 0.00 | 0.02 | 0.00 | 77 | 938.5 |
| 20260506000903 | 54 | 133 | 2.0 | 6.0 | 0.00 | 0.02 | 0.00 | 77 | 938.7 |
| 20260506000403 | 54 | 182 | 2.0 | 6.0 | 0.00 | 0.02 | 0.00 | 77 | 938.7 |
| 20260505235904 | 54 | 208 | 2.0 | 6.0 | 0.00 | 0.02 | 0.00 | 77 | 938.7 |
| 20260505234904 | 54 | 97 | 2.0 | 5.0 | 0.00 | 0.02 | 0.00 | 76 | 938.5 |
| 20260505234403 | 54 | 212 | 2.0 | 5.0 | 0.00 | 0.02 | 0.00 | 75 | 938.5 |
| 20260505233903 | 54 | 203 | 2.0 | 5.0 | 0.00 | 0.02 | 0.00 | 75 | 938.7 |
| 20260505233404 | 54 | 212 | 2.0 | 5.0 | 0.00 | 0.02 | 0.00 | 75 | 938.7 |
| 20260505232903 | 54 | 186 | 2.0 | 3.0 | 0.00 | 0.02 | 0.00 | 75 | 938.7 |
| 20260505232404 | 54 | 146 | 2.0 | 5.0 | 0.00 | 0.02 | 0.00 | 75 | 938.7 |
| 20260505231403 | 54 | 201 | 5.0 | 6.0 | 0.00 | 0.02 | 0.00 | 76 | 938.7 |
| 20260505230904 | 54 | 229 | 2.0 | 7.0 | 0.00 | 0.02 | 0.00 | 76 | 938.8 |
| 20260505230405 | 54 | 227 | 2.0 | 7.0 | 0.00 | 0.02 | 0.00 | 76 | 938.8 |
| 20260505225903 | 54 | 216 | 4.0 | 5.0 | 0.00 | 0.02 | 0.00 | 77 | 938.8 |
| 20260505225404 | 54 | 116 | 5.0 | 5.0 | 0.00 | 0.02 | 0.00 | 77 | 938.8 |
| 20260505224903 | 54 | 170 | 5.0 | 7.0 | 0.00 | 0.02 | 0.00 | 76 | 938.8 |
| 20260505224404 | 54 | 211 | 5.0 | 7.0 | 0.00 | 0.02 | 0.00 | 77 | 938.8 |
| 20260505223404 | 54 | 211 | 3.0 | 5.0 | 0.00 | 0.02 | 0.00 | 77 | 938.8 |
| 20260505222904 | 54 | 210 | 5.0 | 6.0 | 0.00 | 0.02 | 0.00 | 77 | 938.8 |
| 20260505221403 | 55 | 212 | 3.0 | 6.0 | 0.00 | 0.02 | 0.00 | 77 | 938.9 |
| 20260505220903 | 55 | 194 | 3.0 | 6.0 | 0.00 | 0.02 | 0.00 | 77 | 939.0 |
| 20260505220403 | 54 | 189 | 3.0 | 6.0 | 0.00 | 0.02 | 0.00 | 77 | 939.0 |
| 20260505215903 | 55 | 211 | 5.0 | 5.0 | 0.00 | 0.02 | 0.02 | 77 | 939.0 |
| 20260505215404 | 55 | 212 | 5.0 | 6.0 | 0.00 | 0.02 | 0.02 | 77 | 939.2 |
| 20260505214904 | 55 | 221 | 5.0 | 7.0 | 0.00 | 0.02 | 0.02 | 77 | 939.2 |
| 20260505214403 | 55 | 203 | 5.0 | 7.0 | 0.00 | 0.02 | 0.02 | 77 | 939.2 |
| 20260505212904 | 55 | 211 | 2.0 | 5.0 | 0.00 | 0.02 | 0.02 | 76 | 939.3 |
| 20260505212403 | 55 | 223 | 2.0 | 5.0 | 0.00 | 0.02 | 0.02 | 76 | 939.5 |
| 20260505211404 | 55 | 226 | 1.0 | 3.0 | 0.00 | 0.02 | 0.02 | 77 | 939.5 |
| 20260505210903 | 55 | 217 | 1.0 | 3.0 | 0.00 | 0.02 | 0.02 | 76 | 939.4 |
| 20260505205904 | 55 | 249 | 2.0 | 3.0 | 0.00 | 0.02 | 0.02 | 76 | 939.4 |
| 20260505204904 | 55 | 224 | 5.0 | 6.0 | 0.00 | 0.02 | 0.02 | 75 | 939.4 |
| 20260505203903 | 54 | 225 | 6.0 | 7.0 | 0.00 | 0.02 | 0.02 | 77 | 939.4 |
| 20260505203403 | 54 | 219 | 6.0 | 8.0 | 0.00 | 0.02 | 0.02 | 77 | 939.4 |
| 20260505202904 | 54 | 226 | 6.0 | 8.0 | 0.00 | 0.02 | 0.02 | 77 | 939.4 |
| 20260505202403 | 54 | 224 | 6.0 | 7.0 | 0.00 | 0.02 | 0.02 | 78 | 939.3 |
| 20260505201904 | 55 | 221 | 6.0 | 8.0 | 0.00 | 0.02 | 0.02 | 78 | 939.3 |
| 20260505201403 | 55 | 224 | 6.0 | 9.0 | 0.00 | 0.02 | 0.02 | 77 | 939.3 |
| 20260505200904 | 54 | 219 | 6.0 | 9.0 | 0.00 | 0.02 | 0.02 | 77 | 939.1 |
| 20260505200404 | 54 | 214 | 6.0 | 9.0 | 0.00 | 0.02 | 0.02 | 77 | 939.1 |
| 20260505195904 | 54 | 219 | 5.0 | 8.0 | 0.00 | 0.02 | 0.02 | 78 | 939.1 |
| 20260505195404 | 54 | 221 | 5.0 | 8.0 | 0.00 | 0.02 | 0.02 | 78 | 939.0 |
| 20260505194403 | 54 | 207 | 6.0 | 8.0 | 0.00 | 0.02 | 0.02 | 78 | 939.0 |
| 20260505193904 | 54 | 212 | 6.0 | 8.0 | 0.00 | 0.02 | 0.02 | 78 | 939.0 |
| 20260505193403 | 54 | 217 | 7.0 | 9.0 | 0.00 | 0.02 | 0.02 | 79 | 939.0 |
| 20260505192903 | 54 | 222 | 7.0 | 10.0 | 0.00 | 0.02 | 0.02 | 78 | 939.0 |
| 20260505192404 | 54 | 216 | 7.0 | 10.0 | 0.00 | 0.02 | 0.02 | 79 | 938.8 |
| 20260505191904 | 54 | 220 | 7.0 | 12.0 | 0.00 | 0.02 | 0.02 | 79 | 938.8 |
| 20260505190904 | 54 | 215 | 6.0 | 12.0 | 0.00 | 0.02 | 0.02 | 80 | 938.6 |
| 20260505190403 | 54 | 220 | 6.0 | 7.0 | 0.00 | 0.02 | 0.02 | 81 | 938.6 |
| 20260505185903 | 54 | 215 | 6.0 | 7.0 | 0.00 | 0.02 | 0.02 | 82 | 938.6 |
| 20260505185404 | 54 | 220 | 6.0 | 7.0 | 0.00 | 0.02 | 0.02 | 82 | 938.5 |
| 20260505184903 | 54 | 222 | 6.0 | 8.0 | 0.00 | 0.02 | 0.02 | 83 | 938.5 |
| 20260505184404 | 54 | 216 | 6.0 | 9.0 | 0.00 | 0.02 | 0.02 | 83 | 938.5 |
| 20260505183904 | 55 | 224 | 5.0 | 9.0 | 0.00 | 0.02 | 0.02 | 83 | 938.8 |
| 20260505183403 | 54 | 205 | 5.0 | 9.0 | 0.00 | 0.02 | 0.02 | 83 | 938.8 |
| 20260505182904 | 54 | 221 | 6.0 | 7.0 | 0.00 | 0.02 | 0.02 | 83 | 938.8 |
| 20260505182403 | 54 | 225 | 7.0 | 10.0 | 0.00 | 0.02 | 0.02 | 83 | 938.6 |
| 20260505181903 | 54 | 229 | 6.0 | 12.0 | 0.00 | 0.02 | 0.02 | 83 | 938.6 |
| 20260505181404 | 54 | 223 | 6.0 | 12.0 | 0.00 | 0.02 | 0.02 | 83 | 938.6 |
| 20260505180903 | 54 | 213 | 6.0 | 10.0 | 0.00 | 0.02 | 0.02 | 84 | 938.7 |
| 20260505180404 | 54 | 213 | 7.0 | 9.0 | 0.00 | 0.02 | 0.02 | 84 | 938.7 |
| 20260505175904 | 54 | 235 | 7.0 | 10.0 | 0.00 | 0.02 | 0.02 | 84 | 938.7 |
| 20260505175403 | 54 | 224 | 7.0 | 10.0 | 0.02 | 0.02 | 0.02 | 84 | 938.7 |
| 20260505174904 | 54 | 227 | 6.0 | 10.0 | 0.02 | 0.02 | 0.02 | 85 | 938.7 |
| 20260505173903 | 55 | 258 | 6.0 | 10.0 | 0.02 | 0.02 | 0.02 | 86 | 938.7 |
| 20260505173404 | 55 | 226 | 7.0 | 9.0 | 0.02 | 0.02 | 0.02 | 85 | 938.7 |
| 20260505172403 | 55 | 226 | 7.0 | 9.0 | 0.02 | 0.02 | 0.02 | 85 | 938.6 |
| 20260505171403 | 55 | 226 | 8.0 | 12.0 | 0.02 | 0.02 | 0.02 | 83 | 938.6 |
| 20260505170904 | 55 | 242 | 8.0 | 13.0 | 0.02 | 0.02 | 0.02 | 83 | 938.1 |
| 20260505170405 | 56 | 227 | 8.0 | 13.0 | 0.02 | 0.02 | 0.02 | 81 | 938.1 |
| 20260505165904 | 56 | 259 | 9.0 | 16.0 | 0.02 | 0.02 | 0.02 | 80 | 938.1 |
| 20260505164904 | 57 | 251 | 13.0 | 16.0 | 0.00 | 0.00 | 0.00 | 76 | 938.6 |
| 20260505164404 | 57 | 256 | 18.0 | 18.0 | 0.00 | 0.00 | 0.00 | 75 | 938.6 |
| 20260505163903 | 57 | 257 | 21.0 | 46.0 | 0.00 | 0.00 | 0.00 | 74 | 938.3 |
| 20260505163404 | 58 | 231 | 32.0 | 46.0 | 0.00 | 0.00 | 0.00 | 73 | 938.3 |
| 20260505162904 | 58 | 256 | 32.0 | 46.0 | 0.00 | 0.00 | 0.00 | 72 | 938.3 |
| 20260505162404 | 59 | 238 | 30.0 | 54.0 | 0.00 | 0.00 | 0.00 | 72 | 938.2 |
| 20260505161403 | 60 | 260 | 26.0 | 44.0 | 0.00 | 0.00 | 0.00 | 71 | 938.2 |
| 20260505160904 | 60 | 253 | 24.0 | 44.0 | 0.00 | 0.00 | 0.00 | 71 | 937.9 |
| 20260505160404 | 61 | 253 | 14.0 | 44.0 | 0.00 | 0.00 | 0.00 | 69 | 937.9 |
| 20260505151903 | 63 | 247 | 15.0 | 37.0 | 0.00 | 0.00 | 0.00 | 65 | 937.7 |
| 20260505151404 | 64 | 261 | 8.0 | 37.0 | 0.00 | 0.00 | 0.00 | 63 | 937.7 |
| 20260505150904 | 65 | 253 | 8.0 | 21.0 | 0.00 | 0.00 | 0.00 | 62 | 937.7 |
| 20260505124903 | 63 | 67 | 2.0 | 10.0 | 0.00 | 0.00 | 0.00 | 71 | 938.0 |
| 20260505124404 | 63 | 103 | 3.0 | 2.0 | 0.00 | 0.00 | 0.00 | 71 | 938.0 |
| 20260505123903 | 63 | 230 | 3.0 | 6.0 | 0.00 | 0.00 | 0.00 | 68 | 938.1 |
| 20260505123404 | 63 | 230 | 3.0 | 6.0 | 0.00 | 0.00 | 0.00 | 67 | 938.1 |
| 20260505122904 | 63 | 253 | 3.0 | 6.0 | 0.00 | 0.00 | 0.00 | 66 | 938.1 |
| 20260505122403 | 63 | 355 | 3.0 | 6.0 | 0.00 | 0.00 | 0.00 | 71 | 938.1 |
| 20260505121903 | 63 | 259 | 3.0 | 5.0 | 0.00 | 0.00 | 0.00 | 68 | 938.1 |
| 20260505121404 | 63 | 257 | 5.0 | 10.0 | 0.00 | 0.00 | 0.00 | 69 | 938.1 |
| 20260505120903 | 63 | 325 | 5.0 | 10.0 | 0.00 | 0.00 | 0.00 | 72 | 938.0 |
| 20260505120404 | 63 | 257 | 1.0 | 10.0 | 0.00 | 0.00 | 0.00 | 73 | 938.0 |
| 20260505115903 | 62 | 294 | 1.0 | 6.0 | 0.00 | 0.00 | 0.00 | 75 | 938.0 |
| 20260505115404 | 62 | 281 | 0.0 | 2.0 | 0.00 | 0.00 | 0.00 | 77 | 938.2 |
| 20260505114903 | 61 | 244 | 0.0 | 1.0 | 0.00 | 0.00 | 0.00 | 79 | 938.2 |
| 20260505114404 | 60 | 247 | 0.0 | 1.0 | 0.00 | 0.00 | 0.00 | 82 | 938.2 |
| 20260505113404 | 58 | 232 | 5.0 | 8.0 | 0.00 | 0.00 | 0.00 | 87 | 938.2 |
| 20260505112903 | 57 | 232 | 5.0 | 21.0 | 0.00 | 0.00 | 0.00 | 87 | 938.2 |
| 20260505112403 | 57 | 247 | 5.0 | 21.0 | 0.00 | 0.00 | 0.00 | 86 | 938.4 |
| 20260505111903 | 56 | 245 | 5.0 | 21.0 | 0.00 | 0.00 | 0.00 | 86 | 938.4 |
| 20260505111404 | 56 | 268 | 2.0 | 10.0 | 0.00 | 0.00 | 0.00 | 86 | 938.4 |
| 20260505110903 | 56 | 250 | 2.0 | 28.0 | 0.00 | 0.00 | 0.00 | 85 | 938.4 |
| 20260505101903 | 56 | 99 | 0.0 | 0.0 | 0.00 | 0.00 | 0.00 | 88 | 938.4 |
| 20260505100903 | 55 | 99 | 0.0 | 0.0 | 0.00 | 0.00 | 0.00 | 88 | 938.5 |
| 20260505100403 | 55 | 99 | 0.0 | 0.0 | 0.00 | 0.00 | 0.00 | 89 | 938.5 |
| 20260505095903 | 55 | 99 | 0.0 | 0.0 | 0.00 | 0.00 | 0.00 | 89 | 938.5 |
| 20260505095403 | 55 | 99 | 0.0 | 0.0 | 0.00 | 0.00 | 0.00 | 89 | 938.5 |
| 20260505094903 | 55 | 99 | 0.0 | 0.0 | 0.00 | 0.00 | 0.00 | 89 | 938.5 |
| 20260505094403 | 55 | 100 | 0.0 | 0.0 | 0.00 | 0.00 | 0.00 | 89 | 938.5 |
| 20260505093903 | 54 | 99 | 0.0 | 0.0 | 0.00 | 0.00 | 0.00 | 89 | 938.4 |
| 20260505093404 | 54 | 99 | 0.0 | 0.0 | 0.00 | 0.00 | 0.00 | 90 | 938.4 |
| 20260505092904 | 54 | 98 | 0.0 | 0.0 | 0.00 | 0.00 | 0.00 | 90 | 938.4 |
| 20260505092403 | 54 | 99 | 0.0 | 0.0 | 0.00 | 0.00 | 0.00 | 90 | 938.6 |
| 20260505091903 | 54 | 98 | 0.0 | 0.0 | 0.00 | 0.00 | 0.00 | 90 | 938.6 |
| 20260505090903 | 54 | 97 | 0.0 | 0.0 | 0.00 | 0.00 | 0.00 | 91 | 938.6 |
| 20260505090404 | 54 | 95 | 0.0 | 0.0 | 0.00 | 0.00 | 0.00 | 90 | 938.6 |
| 20260505085904 | 53 | 95 | 0.0 | 0.0 | 0.00 | 0.00 | 0.00 | 90 | 938.6 |
| 20260505085404 | 53 | 95 | 0.0 | 0.0 | 0.00 | 0.00 | 0.00 | 90 | 938.7 |
| 20260505084904 | 53 | 95 | 0.0 | 0.0 | 0.00 | 0.00 | 0.00 | 89 | 938.7 |
| 20260505083904 | 53 | 95 | 0.0 | 0.0 | 0.00 | 0.00 | 0.00 | 89 | 938.7 |
| 20260505083404 | 53 | 94 | 0.0 | 0.0 | 0.00 | 0.00 | 0.00 | 89 | 938.7 |
| 20260505082904 | 53 | 94 | 0.0 | 0.0 | 0.00 | 0.00 | 0.00 | 89 | 938.7 |
| 20260505081904 | 53 | 94 | 0.0 | 0.0 | 0.00 | 0.00 | 0.00 | 89 | 938.9 |
| 20260505080903 | 53 | 95 | 0.0 | 0.0 | 0.00 | 0.00 | 0.00 | 88 | 939.0 |
| 20260505080403 | 53 | 94 | 0.0 | 0.0 | 0.00 | 0.00 | 0.00 | 88 | 939.0 |
| 20260505075904 | 54 | 94 | 0.0 | 0.0 | 0.00 | 0.00 | 0.00 | 88 | 939.0 |
| 20260505075404 | 54 | 93 | 0.0 | 0.0 | 0.00 | 0.00 | 0.00 | 88 | 939.0 |
| 20260505073904 | 54 | 96 | 0.0 | 0.0 | 0.00 | 0.00 | 0.00 | 88 | 939.2 |
| 20260505073404 | 54 | 306 | 0.0 | 0.0 | 0.00 | 0.00 | 0.00 | 88 | 939.2 |
| 20260505072905 | 54 | 278 | 0.0 | 0.0 | 0.00 | 0.00 | 0.00 | 88 | 939.2 |
| 20260505072404 | 54 | 278 | 0.0 | 0.0 | 0.00 | 0.00 | 0.00 | 89 | 939.3 |
| 20260505071904 | 53 | 278 | 0.0 | 0.0 | 0.00 | 0.00 | 0.00 | 88 | 939.3 |
| 20260505071405 | 53 | 279 | 2.0 | 0.0 | 0.00 | 0.00 | 0.00 | 88 | 939.3 |
| 20260505070905 | 53 | 281 | 2.0 | 0.0 | 0.00 | 0.00 | 0.00 | 89 | 939.3 |
| 20260505070405 | 53 | 282 | 29.0 | 51.0 | 0.00 | 0.00 | 0.00 | 88 | 939.3 |
| 20260505065905 | 53 | 66 | 29.0 | 51.0 | 0.00 | 0.00 | 0.00 | 89 | 939.3 |
| 20260505065411 | 53 | 124 | 0.0 | 2.0 | 0.00 | 0.00 | 0.00 | 89 | 939.4 |
| 20260505064910 | 53 | 124 | 0.0 | 0.0 | 0.00 | 0.00 | 0.00 | 89 | 939.4 |
| 20260505064409 | 53 | 124 | 0.0 | 0.0 | 0.00 | 0.00 | 0.00 | 89 | 939.4 |
| 20260505063410 | 53 | 124 | 0.0 | 0.0 | 0.00 | 0.00 | 0.00 | 90 | 939.3 |
| 20260505062909 | 53 | 124 | 0.0 | 0.0 | 0.00 | 0.00 | 0.00 | 90 | 939.3 |
| 20260505062413 | 53 | 124 | 0.0 | 0.0 | 0.00 | 0.00 | 0.00 | 89 | 939.3 |
| 20260505061909 | 53 | 124 | 0.0 | 0.0 | 0.00 | 0.00 | 0.00 | 90 | 939.3 |
| 20260505061410 | 53 | 124 | 0.0 | 0.0 | 0.00 | 0.00 | 0.00 | 90 | 939.3 |
| 20260505060411 | 53 | 124 | 0.0 | 0.0 | 0.00 | 0.00 | 0.00 | 90 | 939.3 |
| 20260505055910 | 52 | 124 | 0.0 | 0.0 | 0.00 | 0.00 | 0.00 | 90 | 939.3 |
| 20260505054911 | 52 | 124 | 0.0 | 0.0 | 0.00 | 0.00 | 0.00 | 90 | 939.2 |
| 20260505053910 | 52 | 124 | 0.0 | 0.0 | 0.00 | 0.00 | 0.00 | 90 | 939.0 |
| 20260505053414 | 52 | 124 | 0.0 | 0.0 | 0.00 | 0.00 | 0.00 | 89 | 939.0 |
| 20260505052404 | 52 | 124 | 0.0 | 0.0 | 0.00 | 0.00 | 0.00 | 90 | 939.0 |
| 20260505051909 | 51 | 124 | 0.0 | 0.0 | 0.00 | 0.00 | 0.00 | 90 | 939.0 |
| 20260505051412 | 51 | 124 | 0.0 | 0.0 | 0.00 | 0.00 | 0.00 | 90 | 939.0 |
| 20260505050909 | 51 | 217 | 0.0 | 0.0 | 0.00 | 0.00 | 0.00 | 89 | 939.1 |
| 20260505040908 | 50 | 217 | 0.0 | 0.0 | 0.00 | 0.00 | 0.00 | 88 | 939.2 |
| 20260505035912 | 51 | 218 | 0.0 | 0.0 | 0.00 | 0.00 | 0.00 | 88 | 939.2 |
| 20260505035409 | 50 | 218 | 1.0 | 2.0 | 0.00 | 0.00 | 0.00 | 88 | 939.2 |
| 20260505034910 | 50 | 217 | 1.0 | 3.0 | 0.00 | 0.00 | 0.00 | 87 | 939.2 |
| 20260505034411 | 50 | 216 | 0.0 | 3.0 | 0.00 | 0.00 | 0.00 | 88 | 939.2 |
| 20260505033913 | 50 | 216 | 0.0 | 0.0 | 0.00 | 0.00 | 0.00 | 88 | 939.3 |
| 20260505033409 | 50 | 227 | 0.0 | 0.0 | 0.00 | 0.00 | 0.00 | 88 | 939.3 |
| 20260505032910 | 50 | 225 | 0.0 | 0.0 | 0.00 | 0.00 | 0.00 | 87 | 939.3 |
| 20260505032408 | 50 | 226 | 0.0 | 0.0 | 0.00 | 0.00 | 0.00 | 88 | 939.6 |
| 20260505031911 | 50 | 224 | 0.0 | 0.0 | 0.00 | 0.00 | 0.00 | 88 | 939.6 |
| 20260505030908 | 50 | 225 | 0.0 | 0.0 | 0.00 | 0.00 | 0.00 | 87 | 939.7 |
| 20260505030413 | 51 | 228 | 0.0 | 0.0 | 0.00 | 0.00 | 0.00 | 87 | 939.7 |
| 20260505025910 | 51 | 228 | 0.0 | 0.0 | 0.00 | 0.00 | 0.00 | 87 | 939.7 |
| 20260505025413 | 51 | 227 | 0.0 | 0.0 | 0.00 | 0.00 | 0.00 | 87 | 939.7 |
| 20260505024908 | 51 | 226 | 0.0 | 0.0 | 0.00 | 0.00 | 0.00 | 86 | 939.7 |
| 20260505024408 | 51 | 228 | 0.0 | 0.0 | 0.00 | 0.00 | 0.00 | 87 | 939.7 |
| 20260505023915 | 51 | 227 | 0.0 | 0.0 | 0.00 | 0.00 | 0.00 | 86 | 939.9 |
| 20260505023409 | 51 | 228 | 0.0 | 0.0 | 0.00 | 0.00 | 0.00 | 86 | 939.9 |
| 20260505022910 | 51 | 226 | 0.0 | 0.0 | 0.00 | 0.00 | 0.00 | 86 | 939.9 |
| 20260505022410 | 51 | 227 | 0.0 | 0.0 | 0.00 | 0.00 | 0.00 | 87 | 940.0 |
| 20260505021908 | 51 | 226 | 0.0 | 0.0 | 0.00 | 0.00 | 0.00 | 87 | 940.0 |
| 20260505021409 | 51 | 227 | 0.0 | 0.0 | 0.00 | 0.00 | 0.00 | 87 | 940.0 |
| 20260505020909 | 51 | 227 | 0.0 | 0.0 | 0.00 | 0.00 | 0.00 | 87 | 940.1 |
| 20260505015908 | 51 | 225 | 0.0 | 0.0 | 0.00 | 0.00 | 0.00 | 87 | 940.1 |
| 20260505015408 | 51 | 225 | 0.0 | 0.0 | 0.00 | 0.00 | 0.00 | 87 | 940.1 |
| 20260505014911 | 51 | 225 | 0.0 | 0.0 | 0.00 | 0.00 | 0.00 | 87 | 940.1 |
| 20260505014409 | 51 | 225 | 0.0 | 0.0 | 0.00 | 0.00 | 0.00 | 86 | 940.1 |
| 20260505013410 | 51 | 225 | 0.0 | 0.0 | 0.00 | 0.00 | 0.00 | 87 | 940.2 |
| 20260505012909 | 51 | 225 | 0.0 | 0.0 | 0.00 | 0.00 | 0.00 | 87 | 940.2 |